Flag for Suriname Weather past 2 weeks in Nieuw Nickerie, Suriname

Now
75 °F

Clear.


Feels Like: 75 °F
Forecast: 76 / 84 °F
Wind: No wind

Location: Georgetown/Cheddi Jagan International Airport

Current Time: Apr 21, 2015 at 4:28:46 AM

Latest Report: Apr 21, 2015 at 2:00 AM


Visibility: 10 mi

Pressure: 29.89 "Hg

Humidity: 89%

Dew point: 72 °F

Location of Nieuw NickerieLocation

Historic Weather in Nieuw Nickerie — Graph

°F

Nieuw Nickerie temperature yesterday

Maximum temperature yesterday: 88 °F (at 1:00 PM)
Minimum temperature yesterday: 72 °F (at 6:00 AM)
Average temperature yesterday: 80 °F

Past Weeks' High & Low Weather Summary

 TemperatureHumidityPressure
High90 °F (Apr 8, 1:00 PM)100% (Apr 6, 6:00 AM)30.04 "Hg (Apr 6, 6:00 AM)
Low66 °F (Apr 6, 7:00 AM)52% (Apr 6, 3:00 PM)29.83 "Hg (Apr 6, 4:00 PM)
Average79 °F84%29.92 "Hg
* Reported Apr 6 3:00 AM — Apr 21 2:00 AM, Nieuw Nickerie, Weather by CustomWeather, © 2015

Note: Actual official high and low records may vary slightly from our data, if they occured in-between our weather recording intervals... More about our weather records

Advertising

Nieuw Nickerie weather history for previous 24 hours

 ConditionsComfort  
Time TempWeatherWind HumidityBarometerVisibility
2:00 AM
Tue, Apr 21
75 °FClear.No wind89%29.89 "Hg10 mi
1:00 AM75 °FClear.No wind89%29.92 "Hg10 mi
12:00 AM75 °FClear.5 mph94%29.92 "Hg10 mi
11:00 PM
Mon, Apr 20
77 °FPassing clouds.No wind83%29.92 "HgN/A
10:00 PM77 °FClear.7 mph83%29.92 "Hg10 mi
9:00 PM77 °FClear.7 mph83%29.89 "Hg10 mi
8:00 PM77 °FClear.7 mph89%29.89 "Hg10 mi
7:00 PM79 °FPassing clouds.9 mph84%29.86 "HgN/A
6:00 PM82 °FScattered clouds.16 mph74%29.83 "HgN/A
5:00 PM84 °FPartly sunny.16 mph66%29.86 "HgN/A
4:00 PM86 °FPartly sunny.14 mph66%29.86 "HgN/A
3:00 PM86 °FPartly sunny.16 mph66%29.86 "HgN/A
2:00 PM88 °FPartly sunny.14 mph59%29.89 "HgN/A
1:00 PM88 °FPartly sunny.14 mph59%29.92 "HgN/A
12:00 PM86 °FPartly sunny.16 mph62%29.95 "HgN/A
11:00 AM84 °FPartly sunny.14 mph70%29.95 "HgN/A
10:00 AM82 °FPartly sunny.16 mph74%29.95 "HgN/A
9:00 AM81 °FPassing clouds.12 mph84%29.95 "HgN/A
8:00 AM77 °FPassing clouds.5 mph89%29.92 "HgN/A
7:00 AM72 °FPassing clouds.5 mph100%29.89 "HgN/A
6:00 AM72 °FPassing clouds.No wind100%29.89 "HgN/A
Weather by CustomWeather, © 2015

See weather overviewHow to use our weather pages